BEIDOU-2 IGSO-1

Last updated on Wed Sep 16 2026 00:02:59 GMT+0000 (Coordinated Universal Time)

1 36828U 10036A 26256.66970756 -.00000130 00000+0 00000+0 0 9997 2 36828 54.3037 162.1610 0058541 217.4777 320.7749 1.00289463 58981
UTC large
Height (km)
Speed (km/s)
/
Latitude / Longitude
Inclination (degrees)
Orbital Period (minutes)
Azimuth
Elevation
Range (km)
Doppler Factor

Next 0 passes for location: London (51.5072 / 0.1276)

No passes found over London.
BEIDOU-2 IGSO-1